• In Belarus
  • List of Countries
  • For 7 days
  • Water Temperature
  • Weather Map
  • Weather Widgets
  • user-avatar
    Login

    Hourly Weather Sveti Vlas

    Today, 20 August, Tuesday

    Time Temperature Precipitation Wind Pressure Humidity
    00:00 +18°C° 0 mm 2 mps 757 mmHg 76%
    01:00 +18°C° 0 mm 2 mps 757 mmHg 77%
    02:00 +18°C° 0 mm 2 mps 757 mmHg 78%
    03:00 +18°C° 0 mm 2 mps 757 mmHg 78%
    04:00 +17°C° 0 mm 2 mps 757 mmHg 78%
    05:00 +17°C° 0 mm 3 mps 757 mmHg 79%
    06:00 +19°C° 0 mm 3 mps 758 mmHg 70%
    07:00 +21°C° 0 mm 3 mps 758 mmHg 62%
    08:00 +25°C° 0 mm 3 mps 758 mmHg 54%
    09:00 +26°C° 0 mm 4 mps 758 mmHg 48%
    10:00 +28°C° 0 mm 4 mps 758 mmHg 41%
    11:00 +30°C° 0 mm 5 mps 758 mmHg 34%
    12:00 +30°C° 0 mm 5 mps 758 mmHg 34%
    13:00 +32°C° 0 mm 5 mps 758 mmHg 33%
    14:00 +32°C° 0 mm 6 mps 758 mmHg 33%
    15:00 +32°C° 0 mm 5 mps 757 mmHg 35%
    16:00 +30°C° 0 mm 5 mps 757 mmHg 37%
    17:00 +29°C° 0 mm 5 mps 757 mmHg 39%
    18:00 +27°C° 0 mm 4 mps 757 mmHg 48%
    19:00 +25°C° 0 mm 3 mps 757 mmHg 58%
    20:00 +21°C° 0 mm 2 mps 757 mmHg 67%
    21:00 +21°C° 0 mm 2 mps 757 mmHg 69%
    22:00 +20°C° 0 mm 2 mps 757 mmHg 71%
    23:00 +20°C° 0 mm 3 mps 757 mmHg 74%

    Tomorrow, 21 August, Wednesday

    Time Temperature Precipitation Wind Pressure Humidity
    00:00 +20°C° 0 mm 3 mps 757 mmHg 72%
    01:00 +20°C° 0 mm 3 mps 757 mmHg 71%
    02:00 +19°C° 0 mm 3 mps 756 mmHg 69%
    03:00 +19°C° 0 mm 3 mps 756 mmHg 67%
    04:00 +20°C° 0 mm 3 mps 756 mmHg 65%
    05:00 +20°C° 0 mm 4 mps 756 mmHg 62%
    06:00 +22°C° 0 mm 4 mps 756 mmHg 56%
    07:00 +25°C° 0 mm 4 mps 756 mmHg 49%
    08:00 +27°C° 0 mm 4 mps 756 mmHg 42%
    09:00 +29°C° 0 mm 5 mps 756 mmHg 39%
    10:00 +32°C° 0 mm 5 mps 756 mmHg 36%
    11:00 +35°C° 0 mm 6 mps 756 mmHg 33%
    12:00 +35°C° 0 mm 6 mps 756 mmHg 33%
    13:00 +35°C° 0 mm 6 mps 755 mmHg 34%
    14:00 +35°C° 0 mm 6 mps 755 mmHg 35%
    15:00 +34°C° 0 mm 6 mps 755 mmHg 40%
    16:00 +33°C° 0 mm 6 mps 755 mmHg 45%
    17:00 +32°C° 0 mm 6 mps 754 mmHg 49%
    18:00 +29°C° 0 mm 5 mps 755 mmHg 60%
    19:00 +27°C° 0 mm 3 mps 755 mmHg 71%
    20:00 +24°C° 0 mm 2 mps 755 mmHg 81%
    21:00 +24°C° 0 mm 2 mps 755 mmHg 80%
    22:00 +24°C° 0 mm 2 mps 755 mmHg 80%
    23:00 +23°C° 0 mm 2 mps 755 mmHg 79%

    Day after tomorrow, 22 August, Thursday

    Time Temperature Precipitation Wind Pressure Humidity
    00:00 +22°C° 0 mm 3 mps 755 mmHg 77%
    01:00 +22°C° 0 mm 3 mps 755 mmHg 76%
    02:00 +22°C° 0 mm 4 mps 755 mmHg 74%
    03:00 +22°C° 0 mm 4 mps 755 mmHg 71%
    04:00 +22°C° 0 mm 4 mps 755 mmHg 69%
    05:00 +22°C° 0 mm 4 mps 755 mmHg 66%
    06:00 +25°C° 0 mm 4 mps 755 mmHg 58%
    07:00 +27°C° 0 mm 5 mps 755 mmHg 49%
    08:00 +29°C° 0 mm 5 mps 756 mmHg 40%
    09:00 +32°C° 0 mm 6 mps 756 mmHg 36%
    10:00 +34°C° 0 mm 6 mps 756 mmHg 31%
    11:00 +36°C° 0 mm 6 mps 756 mmHg 27%
    12:00 +36°C° 0 mm 7 mps 756 mmHg 27%
    13:00 +36°C° 0 mm 7 mps 756 mmHg 27%
    14:00 +36°C° 0 mm 7 mps 756 mmHg 27%
    15:00 +35°C° 0 mm 7 mps 755 mmHg 31%
    16:00 +34°C° 0 mm 7 mps 755 mmHg 36%
    17:00 +32°C° 0 mm 6 mps 755 mmHg 40%
    18:00 +29°C° 0 mm 5 mps 756 mmHg 48%
    19:00 +27°C° 0 mm 3 mps 756 mmHg 56%
    20:00 +25°C° 0 mm 2 mps 756 mmHg 64%
    21:00 +25°C° 0 mm 2 mps 756 mmHg 63%
    22:00 +25°C° 0 mm 3 mps 756 mmHg 61%
    23:00 +24°C° 0 mm 3 mps 756 mmHg 60%

    23 August, Friday

    Time Temperature Precipitation Wind Pressure Humidity
    00:00 +23°C° 0 mm 4 mps 756 mmHg 59%
    01:00 +23°C° 0 mm 4 mps 756 mmHg 58%
    02:00 +23°C° 0 mm 5 mps 756 mmHg 58%
    03:00 +23°C° 0 mm 5 mps 756 mmHg 63%
    04:00 +22°C° 0 mm 5 mps 756 mmHg 69%
    05:00 +22°C° 0 mm 6 mps 756 mmHg 74%
    06:00 +23°C° 0 mm 6 mps 757 mmHg 69%
    07:00 +24°C° 0 mm 6 mps 757 mmHg 64%
    08:00 +27°C° 0 mm 7 mps 757 mmHg 59%
    09:00 +29°C° 0 mm 7 mps 757 mmHg 51%
    10:00 +32°C° 0 mm 7 mps 757 mmHg 43%
    11:00 +35°C° 0 mm 7 mps 758 mmHg 35%
    12:00 +35°C° 0 mm 7 mps 757 mmHg 35%
    13:00 +36°C° 0 mm 7 mps 757 mmHg 34%
    14:00 +36°C° 0 mm 7 mps 757 mmHg 34%
    15:00 +35°C° 0 mm 8 mps 757 mmHg 38%
    16:00 +34°C° 0 mm 8 mps 757 mmHg 43%
    17:00 +33°C° 0 mm 8 mps 756 mmHg 47%
    18:00 +30°C° 0 mm 7 mps 757 mmHg 54%
    19:00 +28°C° 0 mm 6 mps 757 mmHg 61%
    20:00 +26°C° 0 mm 5 mps 757 mmHg 68%
    21:00 +26°C° 0 mm 5 mps 757 mmHg 68%
    22:00 +25°C° 0 mm 4 mps 757 mmHg 68%
    23:00 +25°C° 0 mm 4 mps 757 mmHg 68%

    24 August, Saturday

    Time Temperature Precipitation Wind Pressure Humidity
    00:00 +25°C° 0 mm 4 mps 757 mmHg 66%
    01:00 +23°C° 0 mm 4 mps 757 mmHg 65%
    02:00 +23°C° 0 mm 5 mps 757 mmHg 63%
    03:00 +23°C° 0 mm 5 mps 757 mmHg 65%
    04:00 +23°C° 0 mm 6 mps 757 mmHg 67%
    05:00 +22°C° 0 mm 6 mps 757 mmHg 68%
    06:00 +24°C° 0 mm 7 mps 757 mmHg 65%
    07:00 +27°C° 0 mm 8 mps 758 mmHg 62%
    08:00 +28°C° 0 mm 8 mps 758 mmHg 59%
    09:00 +31°C° 0 mm 9 mps 758 mmHg 55%
    10:00 +32°C° 0 mm 9 mps 758 mmHg 50%
    11:00 +33°C° 0 mm 9 mps 758 mmHg 45%
    12:00 +33°C° 0 mm 9 mps 758 mmHg 45%
    13:00 +33°C° 0 mm 9 mps 758 mmHg 45%
    14:00 +34°C° 0 mm 9 mps 758 mmHg 45%
    15:00 +32°C° 0 mm 8 mps 757 mmHg 49%
    16:00 +31°C° 0 mm 8 mps 757 mmHg 54%
    17:00 +29°C° 0 mm 8 mps 757 mmHg 59%
    18:00 +27°C° 0 mm 7 mps 757 mmHg 69%
    19:00 +24°C° 0 mm 6 mps 757 mmHg 79%
    20:00 +22°C° 0 mm 4 mps 757 mmHg 89%
    21:00 +22°C° 0 mm 4 mps 757 mmHg 91%
    22:00 +22°C° 0 mm 4 mps 757 mmHg 92%
    23:00 +21°C° 0 mm 3 mps 757 mmHg 94%

    25 August, Sunday

    Time Temperature Precipitation Wind Pressure Humidity
    00:00 +21°C° 0 mm 4 mps 757 mmHg 93%
    01:00 +21°C° 0 mm 4 mps 757 mmHg 93%
    02:00 +20°C° 0 mm 4 mps 757 mmHg 93%
    03:00 +20°C° 0 mm 4 mps 756 mmHg 91%
    04:00 +20°C° 0 mm 4 mps 756 mmHg 90%
    05:00 +19°C° 0 mm 4 mps 756 mmHg 89%
    06:00 +21°C° 0 mm 4 mps 756 mmHg 78%
    07:00 +23°C° 0 mm 5 mps 756 mmHg 67%
    08:00 +26°C° 0 mm 5 mps 757 mmHg 57%
    09:00 +28°C° 0 mm 5 mps 756 mmHg 52%
    10:00 +32°C° 0 mm 6 mps 756 mmHg 47%
    11:00 +34°C° 0 mm 7 mps 756 mmHg 42%
    12:00 +34°C° 0 mm 7 mps 756 mmHg 42%
    13:00 +34°C° 0 mm 7 mps 756 mmHg 43%
    14:00 +34°C° 0 mm 8 mps 755 mmHg 43%
    15:00 +33°C° 0 mm 8 mps 755 mmHg 49%
    16:00 +32°C° 0 mm 8 mps 755 mmHg 54%
    17:00 +29°C° 0 mm 8 mps 755 mmHg 59%
    18:00 +27°C° 0 mm 7 mps 755 mmHg 70%
    19:00 +24°C° 0 mm 6 mps 755 mmHg 80%
    20:00 +22°C° 0 mm 5 mps 755 mmHg 90%
    21:00 +22°C° 0 mm 4 mps 755 mmHg 92%
    22:00 +22°C° 0 mm 4 mps 755 mmHg 93%
    23:00 +21°C° 0 mm 3 mps 756 mmHg 94%
    Show more